,,Stat6,,Stat2,,Stat8,,Stat9,,Stat10,,Wind1,,Wind1,
time,status,PA1M_AVG,status,PR1M_SUM,status,RH1M_AVG,status,SR1M_AVG,status,TA1M_AVG,status,W1dAve1m,status,W1sAve1m,
2008-09-06, 00:00:00,VALID,918.175,VALID,0,VALID,100,VALID,0.0679233,VALID,19.0066,VALID,146,VALID,0,
2008-09-06, 00:01:00,VALID,918.171,VALID,0,VALID,100,VALID,0.101885,VALID,19.0163,VALID,142,VALID,0,
2008-09-06, 00:02:00,VALID,918.157,VALID,0,VALID,100,VALID,0.118866,VALID,19.0128,VALID,142,VALID,0.146391,
2008-09-06, 00:03:00,VALID,918.147,VALID,0,VALID,100,VALID,0.101885,VALID,19.0203,VALID,144,VALID,0.0494088,
2008-09-06, 00:04:00,VALID,918.126,VALID,0,VALID,100,VALID,0.118866,VALID,19.0133,VALID,146,VALID,0.440407,
2008-09-06, 00:05:00,VALID,918.117,VALID,0,VALID,100,VALID,0.101885,VALID,19.0034,VALID,135,VALID,1.04669,
2008-09-06, 00:06:00,VALID,918.091,VALID,0,VALID,100,VALID,0.0339617,VALID,18.9976,VALID,142,VALID,1.20145,
2008-09-06, 00:07:00,VALID,918.072,VALID,0,VALID,100,VALID,0.0169808,VALID,19.0046,VALID,156,VALID,0.660156,
2008-09-06, 00:08:00,VALID,918.072,VALID,0.2,VALID,100,VALID,0.0169808,VALID,19.0078,VALID,145,VALID,0.496995,
2008-09-06, 00:09:00,VALID,918.045,VALID,0,VALID,100,VALID,0,VALID,19.0178,VALID,154,VALID,0.790451,
2008-09-06, 00:10:00,VALID,918.031,VALID,0,VALID,100,VALID,0,VALID,19.0145,VALID,151,VALID,0.551599,
2008-09-06, 00:11:00,VALID,918.041,VALID,0,VALID,100,VALID,0,VALID,19.0173,VALID,151,VALID,0.696766,
2008-09-06, 00:12:00,VALID,918.042,VALID,0,VALID,100,VALID,-0.0169808,VALID,19.018,VALID,154,VALID,0.710227,
2008-09-06, 00:13:00,VALID,918.042,VALID,0,VALID,100,VALID,0.0339617,VALID,19.0178,VALID,149,VALID,0.76617,
2008-09-06, 00:14:00,VALID,918.023,VALID,0,VALID,100,VALID,0.0339617,VALID,19.0041,VALID,146,VALID,0.0871804,
2008-09-06, 00:15:00,VALID,918.022,VALID,0,VALID,100,VALID,0,VALID,19.0041,VALID,152,VALID,0,
2008-09-06, 00:16:00,VALID,918.002,VALID,0,VALID,100,VALID,0.0169808,VALID,19.0041,VALID,155,VALID,0.0401278,
2008-09-06, 00:17:00,VALID,917.995,VALID,0,VALID,100,VALID,0,VALID,19.0213,VALID,163,VALID,0.00218023,
2008-09-06, 00:18:00,VALID,917.982,VALID,0,VALID,100,VALID,-0.0169808,VALID,19.011,VALID,162,VALID,0.216264,
2008-09-06, 00:19:00,VALID,917.969,VALID,0,VALID,100,VALID,0.0339617,VALID,19.0205,VALID,165,VALID,0.94186,
2008-09-06, 00:20:00,VALID,917.953,VALID,0,VALID,100,VALID,-0.0169808,VALID,19.024,VALID,168,VALID,0.611737,
2008-09-06, 00:21:00,VALID,917.938,VALID,0,VALID,100,VALID,-0.0509425,VALID,19.0282,VALID,174,VALID,0.638393,
2008-09-06, 00:22:00,VALID,917.928,VALID,0,VALID,100,VALID,-0.101885,VALID,19.0217,VALID,171,VALID,0.786966,
2008-09-06, 00:23:00,VALID,917.927,VALID,0,VALID,100,VALID,-0.0849042,VALID,19.0257,VALID,187,VALID,0.76835,
2008-09-06, 00:24:00,VALID,917.904,VALID,0,VALID,100,VALID,-0.118866,VALID,19.0287,VALID,172,VALID,0.963844,
2008-09-06, 00:25:00,VALID,917.894,VALID,0,VALID,100,VALID,-0.118866,VALID,19.0252,VALID,168,VALID,0.746271,
2008-09-06, 00:26:00,VALID,917.884,VALID,0,VALID,100,VALID,-0.0849042,VALID,19.0157,VALID,177,VALID,0,
2008-09-06, 00:27:00,VALID,917.875,VALID,0,VALID,100,VALID,-0.0509425,VALID,19.0215,VALID,160,VALID,0,
2008-09-06, 00:28:00,VALID,917.862,VALID,0,VALID,100,VALID,-0.0679233,VALID,19.0025,VALID,164,VALID,0,
2008-09-06, 00:29:00,VALID,917.843,VALID,0,VALID,100,VALID,-0.101885,VALID,19.0053,VALID,158,VALID,0.00390625,
2008-09-06, 00:30:00,VALID,917.84,VALID,0,VALID,100,VALID,-0.0849042,VALID,19.0058,VALID,159,VALID,0.399826,
2008-09-06, 00:31:00,VALID,917.825,VALID,0,VALID,100,VALID,-0.0849042,VALID,19.0055,VALID,155,VALID,0.469778,
2008-09-06, 00:32:00,VALID,917.81,VALID,0,VALID,100,VALID,-0.118866,VALID,18.9933,VALID,156,VALID,0.00230824,
2008-09-06, 00:33:00,VALID,917.8,VALID,0,VALID,100,VALID,-0.118866,VALID,18.9865,VALID,156,VALID,0,
2008-09-06, 00:34:00,VALID,917.795,VALID,0,VALID,100,VALID,-0.101885,VALID,18.9835,VALID,157,VALID,0,
2008-09-06, 00:35:00,VALID,917.788,VALID,0,VALID,100,VALID,-0.101885,VALID,18.9833,VALID,160,VALID,0,
2008-09-06, 00:36:00,VALID,917.782,VALID,0,VALID,100,VALID,-0.0509425,VALID,18.9821,VALID,172,VALID,0,
2008-09-06, 00:37:00,VALID,917.781,VALID,0,VALID,100,VALID,0,VALID,18.9809,VALID,172,VALID,0,
2008-09-06, 00:38:00,VALID,917.77,VALID,0,VALID,100,VALID,0,VALID,18.9883,VALID,172,VALID,0,
2008-09-06, 00:39:00,VALID,917.77,VALID,0,VALID,100,VALID,0,VALID,18.9916,VALID,172,VALID,0,
2008-09-06, 00:40:00,VALID,917.755,VALID,0,VALID,100,VALID,0.0169808,VALID,18.9916,VALID,170,VALID,0.145389,
2008-09-06, 00:41:00,VALID,917.759,VALID,0,VALID,100,VALID,0,VALID,18.9978,VALID,160,VALID,0.179155,
2008-09-06, 00:42:00,VALID,917.757,VALID,0,VALID,100,VALID,-0.0169808,VALID,18.9946,VALID,160,VALID,0,
2008-09-06, 00:43:00,VALID,917.735,VALID,0,VALID,100,VALID,-0.0169808,VALID,18.9978,VALID,165,VALID,0.528045,
2008-09-06, 00:44:00,VALID,917.723,VALID,0,VALID,100,VALID,0,VALID,18.9911,VALID,176,VALID,0.651105,
2008-09-06, 00:45:00,VALID,917.709,VALID,0,VALID,100,VALID,0,VALID,18.9976,VALID,169,VALID,0.207227,
2008-09-06, 00:46:00,VALID,917.694,VALID,0,VALID,100,VALID,0,VALID,18.9978,VALID,162,VALID,0.101563,
2008-09-06, 00:47:00,VALID,917.68,VALID,0,VALID,100,VALID,0,VALID,18.9916,VALID,159,VALID,0.850561,
2008-09-06, 00:48:00,VALID,917.676,VALID,0,VALID,100,VALID,-0.0169808,VALID,18.9986,VALID,166,VALID,0.729911,
2008-09-06, 00:49:00,VALID,917.647,VALID,0,VALID,100,VALID,-0.0169808,VALID,18.9951,VALID,161,VALID,0.100472,
2008-09-06, 00:50:00,VALID,917.64,VALID,0,VALID,100,VALID,-0.0339617,VALID,18.9879,VALID,142,VALID,0.508984,
2008-09-06, 00:51:00,VALID,917.628,VALID,0,VALID,100,VALID,-0.0169808,VALID,18.9951,VALID,145,VALID,0,
2008-09-06, 00:52:00,VALID,917.603,VALID,0,VALID,100,VALID,0.0169808,VALID,18.9844,VALID,144,VALID,0.0842634,
2008-09-06, 00:53:00,VALID,917.586,VALID,0,VALID,100,VALID,0,VALID,18.9754,VALID,137,VALID,0,
2008-09-06, 00:54:00,VALID,917.576,VALID,0,VALID,100,VALID,0,VALID,18.9751,VALID,132,VALID,0.309832,
2008-09-06, 00:55:00,VALID,917.56,VALID,0,VALID,100,VALID,0,VALID,18.9652,VALID,128,VALID,0.56141,
2008-09-06, 00:56:00,VALID,917.535,VALID,0,VALID,100,VALID,-0.0169808,VALID,18.9619,VALID,128,VALID,0.561228,
2008-09-06, 00:57:00,VALID,917.512,VALID,0,VALID,100,VALID,0,VALID,18.9689,VALID,128,VALID,0.039253,
2008-09-06, 00:58:00,VALID,917.494,VALID,0,VALID,100,VALID,0,VALID,18.9524,VALID,126,VALID,0,
2008-09-06, 00:59:00,VALID,917.461,VALID,0,VALID,100,VALID,0,VALID,18.9589,VALID,119,VALID,0,
2008-09-06, 01:00:00,VALID,917.451,VALID,0,VALID,100,VALID,-0.0169808,VALID,18.9621,VALID,118,VALID,0,
2008-09-06, 01:01:00,VALID,917.438,VALID,0,VALID,100,VALID,0,VALID,18.9881,VALID,111,VALID,0,
2008-09-06, 01:02:00,VALID,917.417,VALID,0,VALID,100,VALID,0,VALID,18.9784,VALID,108,VALID,0,
2008-09-06, 01:03:00,VALID,917.395,VALID,0,VALID,100,VALID,0,VALID,18.9691,VALID,108,VALID,0,
2008-09-06, 01:04:00,VALID,917.387,VALID,0,VALID,100,VALID,0,VALID,18.9527,VALID,108,VALID,0,
2008-09-06, 01:05:00,VALID,917.38,VALID,0,VALID,100,VALID,-0.0169808,VALID,18.9334,VALID,108,VALID,0,
2008-09-06, 01:06:00,VALID,917.352,VALID,0,VALID,100,VALID,0,VALID,18.9137,VALID,108,VALID,0,
2008-09-06, 01:07:00,VALID,917.337,VALID,0,VALID,100,VALID,-0.0339617,VALID,18.888,VALID,108,VALID,0,
2008-09-06, 01:08:00,VALID,917.317,VALID,0,VALID,100,VALID,-0.0169808,VALID,18.8783,VALID,108,VALID,0,
2008-09-06, 01:09:00,VALID,917.295,VALID,0,VALID,100,VALID,0,VALID,18.888,VALID,108,VALID,0,
2008-09-06, 01:10:00,VALID,917.278,VALID,0,VALID,100,VALID,-0.0339617,VALID,18.9105,VALID,108,VALID,0,
2008-09-06, 01:11:00,VALID,917.25,VALID,0,VALID,100,VALID,0,VALID,18.917,VALID,108,VALID,0,
2008-09-06, 01:12:00,VALID,917.238,VALID,0,VALID,100,VALID,0,VALID,18.9135,VALID,108,VALID,0,
2008-09-06, 01:13:00,VALID,917.206,VALID,0,VALID,100,VALID,0,VALID,18.91,VALID,108,VALID,0,
2008-09-06, 01:14:00,VALID,917.19,VALID,0,VALID,100,VALID,0.0509425,VALID,18.9063,VALID,108,VALID,0,
2008-09-06, 01:15:00,VALID,917.169,VALID,0,VALID,100,VALID,0,VALID,18.9033,VALID,108,VALID,0,
2008-09-06, 01:16:00,VALID,917.146,VALID,0,VALID,100,VALID,0.0169808,VALID,18.8868,VALID,108,VALID,0,
2008-09-06, 01:17:00,VALID,917.134,VALID,0,VALID,100,VALID,0.0169808,VALID,18.8708,VALID,108,VALID,0,
2008-09-06, 01:18:00,VALID,917.106,VALID,0,VALID,100,VALID,0,VALID,18.8551,VALID,108,VALID,0,
2008-09-06, 01:19:00,VALID,917.11,VALID,0,VALID,100,VALID,0,VALID,18.8454,VALID,108,VALID,0,
2008-09-06, 01:20:00,VALID,917.096,VALID,0,VALID,100,VALID,0,VALID,18.8454,VALID,108,VALID,0,
2008-09-06, 01:21:00,VALID,917.086,VALID,0,VALID,100,VALID,-0.0339617,VALID,18.8326,VALID,108,VALID,0,
2008-09-06, 01:22:00,VALID,917.074,VALID,0,VALID,100,VALID,0,VALID,18.8199,VALID,108,VALID,0,
2008-09-06, 01:23:00,VALID,917.072,VALID,0,VALID,100,VALID,0,VALID,18.8034,VALID,108,VALID,0,
2008-09-06, 01:24:00,VALID,917.058,VALID,0,VALID,100,VALID,0,VALID,18.8037,VALID,114,VALID,0,
2008-09-06, 01:25:00,VALID,917.042,VALID,0,VALID,100,VALID,-0.0169808,VALID,18.8037,VALID,137,VALID,0,
2008-09-06, 01:26:00,VALID,917.036,VALID,0,VALID,100,VALID,-0.0169808,VALID,18.8004,VALID,137,VALID,0,
2008-09-06, 01:27:00,VALID,917.031,VALID,0,VALID,100,VALID,0,VALID,18.7972,VALID,136,VALID,0,
2008-09-06, 01:28:00,VALID,917.018,VALID,0,VALID,100,VALID,-0.0679233,VALID,18.7974,VALID,136,VALID,0,
2008-09-06, 01:29:00,VALID,917.02,VALID,0,VALID,100,VALID,-0.0849042,VALID,18.7977,VALID,137,VALID,0,
2008-09-06, 01:30:00,VALID,917.008,VALID,0,VALID,100,VALID,-0.0679233,VALID,18.7972,VALID,140,VALID,0,
2008-09-06, 01:31:00,VALID,917.004,VALID,0,VALID,100,VALID,-0.0679233,VALID,18.8039,VALID,143,VALID,0,
2008-09-06, 01:32:00,VALID,916.992,VALID,0,VALID,100,VALID,0,VALID,18.8134,VALID,138,VALID,0,
2008-09-06, 01:33:00,VALID,917.007,VALID,0,VALID,100,VALID,-0.0169808,VALID,18.8234,VALID,131,VALID,0,
2008-09-06, 01:34:00,VALID,916.995,VALID,0,VALID,100,VALID,-0.0509425,VALID,18.8199,VALID,140,VALID,0,
2008-09-06, 01:35:00,VALID,917.009,VALID,0,VALID,100,VALID,-0.0169808,VALID,18.8266,VALID,143,VALID,0,
2008-09-06, 01:36:00,VALID,917.006,VALID,0,VALID,100,VALID,-0.0169808,VALID,18.8329,VALID,143,VALID,0,
2008-09-06, 01:37:00,VALID,917.03,VALID,0,VALID,100,VALID,-0.0169808,VALID,18.8296,VALID,150,VALID,0,
2008-09-06, 01:38:00,VALID,917.042,VALID,0,VALID,100,VALID,0,VALID,18.8299,VALID,152,VALID,0,
2008-09-06, 01:39:00,VALID,917.042,VALID,0,VALID,100,VALID,-0.0339617,VALID,18.8234,VALID,151,VALID,0,
2008-09-06, 01:40:00,VALID,917.061,VALID,0,VALID,100,VALID,-0.0169808,VALID,18.8134,VALID,148,VALID,0,
2008-09-06, 01:41:00,VALID,917.057,VALID,0,VALID,100,VALID,-0.0169808,VALID,18.8102,VALID,153,VALID,0,
2008-09-06, 01:42:00,VALID,917.064,VALID,0,VALID,100,VALID,-0.0339617,VALID,18.8072,VALID,152,VALID,0,
2008-09-06, 01:43:00,VALID,917.063,VALID,0,VALID,100,VALID,-0.0339617,VALID,18.8039,VALID,152,VALID,0,
2008-09-06, 01:44:00,VALID,917.062,VALID,0,VALID,100,VALID,-0.0169808,VALID,18.8104,VALID,151,VALID,0,
2008-09-06, 01:45:00,VALID,917.063,VALID,0,VALID,100,VALID,-0.0339617,VALID,18.8037,VALID,151,VALID,0,
2008-09-06, 01:46:00,VALID,917.065,VALID,0,VALID,100,VALID,-0.0169808,VALID,18.8004,VALID,151,VALID,0,
2008-09-06, 01:47:00,VALID,917.08,VALID,0,VALID,100,VALID,-0.0169808,VALID,18.8037,VALID,151,VALID,0,
2008-09-06, 01:48:00,VALID,917.076,VALID,0,VALID,100,VALID,-0.0169808,VALID,18.7967,VALID,151,VALID,0,
2008-09-06, 01:49:00,VALID,917.068,VALID,0,VALID,100,VALID,-0.0339617,VALID,18.8002,VALID,151,VALID,0,
2008-09-06, 01:50:00,VALID,917.071,VALID,0,VALID,100,VALID,0,VALID,18.8201,VALID,151,VALID,0,
2008-09-06, 01:51:00,VALID,917.074,VALID,0,VALID,100,VALID,-0.0509425,VALID,18.8264,VALID,151,VALID,0,
2008-09-06, 01:52:00,VALID,917.057,VALID,0,VALID,100,VALID,0,VALID,18.8234,VALID,151,VALID,0,
2008-09-06, 01:53:00,VALID,917.057,VALID,0,VALID,100,VALID,0.0169808,VALID,18.8197,VALID,151,VALID,0,
2008-09-06, 01:54:00,VALID,917.066,VALID,0,VALID,100,VALID,-0.0509425,VALID,18.8197,VALID,151,VALID,0,
2008-09-06, 01:55:00,VALID,917.06,VALID,0,VALID,100,VALID,0,VALID,18.8303,VALID,151,VALID,0,
2008-09-06, 01:56:00,VALID,917.069,VALID,0,VALID,100,VALID,0,VALID,18.8201,VALID,151,VALID,0,
2008-09-06, 01:57:00,VALID,917.064,VALID,0,VALID,100,VALID,-0.0509425,VALID,18.8234,VALID,151,VALID,0,
2008-09-06, 01:58:00,VALID,917.059,VALID,0,VALID,100,VALID,0,VALID,18.8204,VALID,151,VALID,0,
2008-09-06, 01:59:00,VALID,917.042,VALID,0,VALID,100,VALID,-0.0339617,VALID,18.8132,VALID,151,VALID,0,
2008-09-06, 02:00:00,VALID,917.035,VALID,0.2,VALID,100,VALID,0,VALID,18.8007,VALID,151,VALID,0,
2008-09-06, 02:01:00,VALID,917.026,VALID,0,VALID,100,VALID,-0.0339617,VALID,18.7974,VALID,151,VALID,0,
2008-09-06, 02:02:00,VALID,917.009,VALID,0,VALID,100,VALID,-0.0679233,VALID,18.7877,VALID,109,VALID,0,
2008-09-06, 02:03:00,VALID,916.997,VALID,0,VALID,100,VALID,-0.0339617,VALID,18.7485,VALID,45,VALID,0,
2008-09-06, 02:04:00,VALID,916.986,VALID,0,VALID,100,VALID,-0.0339617,VALID,18.6997,VALID,35,VALID,0,
2008-09-06, 02:05:00,VALID,916.973,VALID,0,VALID,100,VALID,0,VALID,18.664,VALID,33,VALID,0,
2008-09-06, 02:06:00,VALID,916.947,VALID,0,VALID,100,VALID,0,VALID,18.6385,VALID,59,VALID,0,
2008-09-06, 02:07:00,VALID,916.943,VALID,0,VALID,100,VALID,-0.0339617,VALID,18.6091,VALID,62,VALID,0,
2008-09-06, 02:08:00,VALID,916.938,VALID,0,VALID,100,VALID,-0.0339617,VALID,18.5924,VALID,58,VALID,0,
2008-09-06, 02:09:00,VALID,916.93,VALID,0,VALID,100,VALID,-0.0339617,VALID,18.5996,VALID,58,VALID,0,
2008-09-06, 02:10:00,VALID,916.912,VALID,0,VALID,100,VALID,-0.0169808,VALID,18.6093,VALID,58,VALID,0,
2008-09-06, 02:11:00,VALID,916.906,VALID,0,VALID,100,VALID,-0.0169808,VALID,18.6028,VALID,58,VALID,0,
2008-09-06, 02:12:00,VALID,916.903,VALID,0,VALID,100,VALID,-0.0339617,VALID,18.6091,VALID,58,VALID,0,
2008-09-06, 02:13:00,VALID,916.886,VALID,0,VALID,100,VALID,0,VALID,18.619,VALID,63,VALID,0,
2008-09-06, 02:14:00,VALID,916.864,VALID,0,VALID,100,VALID,-0.0339617,VALID,18.6218,VALID,67,VALID,0.0339844,
2008-09-06, 02:15:00,VALID,916.859,VALID,0,VALID,100,VALID,-0.0169808,VALID,18.622,VALID,67,VALID,0,
2008-09-06, 02:16:00,VALID,916.846,VALID,0,VALID,100,VALID,-0.0169808,VALID,18.6188,VALID,67,VALID,0,
2008-09-06, 02:17:00,VALID,916.839,VALID,0,VALID,100,VALID,-0.0169808,VALID,18.6058,VALID,67,VALID,0,
2008-09-06, 02:18:00,VALID,916.821,VALID,0,VALID,100,VALID,-0.0169808,VALID,18.5993,VALID,67,VALID,0,
2008-09-06, 02:19:00,VALID,916.803,VALID,0,VALID,100,VALID,-0.0169808,VALID,18.6026,VALID,67,VALID,0,
2008-09-06, 02:20:00,VALID,916.791,VALID,0,VALID,100,VALID,-0.0169808,VALID,18.6026,VALID,67,VALID,0,
2008-09-06, 02:21:00,VALID,916.776,VALID,0,VALID,100,VALID,0,VALID,18.6058,VALID,67,VALID,0,
2008-09-06, 02:22:00,VALID,916.746,VALID,0,VALID,100,VALID,-0.0169808,VALID,18.619,VALID,67,VALID,0,
2008-09-06, 02:23:00,VALID,916.752,VALID,0,VALID,100,VALID,0,VALID,18.6125,VALID,67,VALID,0,
2008-09-06, 02:24:00,VALID,916.744,VALID,0,VALID,100,VALID,-0.0679233,VALID,18.6288,VALID,67,VALID,0,
2008-09-06, 02:25:00,VALID,916.734,VALID,0,VALID,100,VALID,-0.0339617,VALID,18.6255,VALID,67,VALID,0,
2008-09-06, 02:26:00,VALID,916.738,VALID,0,VALID,100,VALID,-0.0169808,VALID,18.6385,VALID,75,VALID,0,
2008-09-06, 02:27:00,VALID,916.726,VALID,0,VALID,100,VALID,0,VALID,18.6577,VALID,112,VALID,0,
2008-09-06, 02:28:00,VALID,916.729,VALID,0,VALID,100,VALID,0,VALID,18.654,VALID,114,VALID,0,
2008-09-06, 02:29:00,VALID,916.733,VALID,0,VALID,100,VALID,0,VALID,18.6612,VALID,114,VALID,0,
2008-09-06, 02:30:00,VALID,916.733,VALID,0,VALID,100,VALID,-0.0849042,VALID,18.654,VALID,114,VALID,0,
2008-09-06, 02:31:00,VALID,916.737,VALID,0,VALID,100,VALID,-0.0679233,VALID,18.6644,VALID,114,VALID,0,
2008-09-06, 02:32:00,VALID,916.752,VALID,0,VALID,100,VALID,-0.0679233,VALID,18.6709,VALID,114,VALID,0,
2008-09-06, 02:33:00,VALID,916.751,VALID,0,VALID,100,VALID,-0.0339617,VALID,18.6772,VALID,114,VALID,0,
2008-09-06, 02:34:00,VALID,916.735,VALID,0,VALID,100,VALID,-0.0679233,VALID,18.6772,VALID,114,VALID,0,
2008-09-06, 02:35:00,VALID,916.73,VALID,0,VALID,100,VALID,-0.0509425,VALID,18.6774,VALID,114,VALID,0,
2008-09-06, 02:36:00,VALID,916.743,VALID,0,VALID,100,VALID,-0.0509425,VALID,18.6772,VALID,114,VALID,0,
2008-09-06, 02:37:00,VALID,916.737,VALID,0,VALID,100,VALID,-0.0679233,VALID,18.6772,VALID,114,VALID,0,
2008-09-06, 02:38:00,VALID,916.716,VALID,0,VALID,100,VALID,-0.0849042,VALID,18.6742,VALID,114,VALID,0,
2008-09-06, 02:39:00,VALID,916.712,VALID,0,VALID,100,VALID,-0.0849042,VALID,18.6804,VALID,114,VALID,0,
2008-09-06, 02:40:00,VALID,916.691,VALID,0,VALID,100,VALID,-0.0509425,VALID,18.6906,VALID,114,VALID,0,
2008-09-06, 02:41:00,VALID,916.688,VALID,0,VALID,100,VALID,-0.0339617,VALID,18.6962,VALID,114,VALID,0,
2008-09-06, 02:42:00,VALID,916.673,VALID,0,VALID,100,VALID,-0.0679233,VALID,18.7096,VALID,114,VALID,0,
2008-09-06, 02:43:00,VALID,916.654,VALID,0,VALID,100,VALID,-0.0849042,VALID,18.6906,VALID,114,VALID,0,
2008-09-06, 02:44:00,VALID,916.638,VALID,0,VALID,100,VALID,-0.0339617,VALID,18.6774,VALID,114,VALID,0,
2008-09-06, 02:45:00,VALID,916.651,VALID,0,VALID,100,VALID,-0.0679233,VALID,18.6772,VALID,112,VALID,0,
2008-09-06, 02:46:00,VALID,916.636,VALID,0,VALID,100,VALID,-0.0849042,VALID,18.6746,VALID,102,VALID,0,
2008-09-06, 02:47:00,VALID,916.634,VALID,0,VALID,100,VALID,-0.0679233,VALID,18.6677,VALID,102,VALID,0,
2008-09-06, 02:48:00,VALID,916.621,VALID,0,VALID,100,VALID,-0.0509425,VALID,18.6707,VALID,102,VALID,0,
2008-09-06, 02:49:00,VALID,916.621,VALID,0,VALID,100,VALID,-0.0339617,VALID,18.6772,VALID,102,VALID,0,
2008-09-06, 02:50:00,VALID,916.616,VALID,0,VALID,100,VALID,-0.0339617,VALID,18.6869,VALID,102,VALID,0,
2008-09-06, 02:51:00,VALID,916.617,VALID,0,VALID,100,VALID,-0.0509425,VALID,18.6705,VALID,102,VALID,0,
2008-09-06, 02:52:00,VALID,916.611,VALID,0,VALID,100,VALID,-0.0169808,VALID,18.6642,VALID,102,VALID,0,
2008-09-06, 02:53:00,VALID,916.593,VALID,0,VALID,100,VALID,0,VALID,18.6408,VALID,102,VALID,0,
2008-09-06, 02:54:00,VALID,916.586,VALID,0,VALID,100,VALID,0,VALID,18.644,VALID,102,VALID,0,
2008-09-06, 02:55:00,VALID,916.558,VALID,0,VALID,100,VALID,-0.0169808,VALID,18.6542,VALID,102,VALID,0,
2008-09-06, 02:56:00,VALID,916.56,VALID,0,VALID,100,VALID,-0.0509425,VALID,18.6642,VALID,102,VALID,0,
2008-09-06, 02:57:00,VALID,916.549,VALID,0,VALID,100,VALID,-0.0339617,VALID,18.6739,VALID,102,VALID,0,
2008-09-06, 02:58:00,VALID,916.555,VALID,0,VALID,100,VALID,-0.0509425,VALID,18.6772,VALID,102,VALID,0,
2008-09-06, 02:59:00,VALID,916.55,VALID,0,VALID,100,VALID,-0.0339617,VALID,18.664,VALID,102,VALID,0,
2008-09-06, 03:00:00,VALID,916.54,VALID,0,VALID,100,VALID,-0.0339617,VALID,18.6512,VALID,102,VALID,0,
2008-09-06, 03:01:00,VALID,916.531,VALID,0,VALID,100,VALID,-0.0169808,VALID,18.6447,VALID,102,VALID,0,
2008-09-06, 03:02:00,VALID,916.541,VALID,0,VALID,100,VALID,-0.0169808,VALID,18.6288,VALID,102,VALID,0,
2008-09-06, 03:03:00,VALID,916.53,VALID,0,VALID,100,VALID,-0.0849042,VALID,18.6288,VALID,102,VALID,0,
2008-09-06, 03:04:00,VALID,916.536,VALID,0,VALID,100,VALID,-0.0849042,VALID,18.619,VALID,102,VALID,0,
2008-09-06, 03:05:00,VALID,916.537,VALID,0,VALID,100,VALID,-0.0339617,VALID,18.6125,VALID,102,VALID,0,
2008-09-06, 03:06:00,VALID,916.532,VALID,0,VALID,100,VALID,-0.0679233,VALID,18.5996,VALID,102,VALID,0,
2008-09-06, 03:07:00,VALID,916.533,VALID,0,VALID,100,VALID,-0.0849042,VALID,18.5931,VALID,102,VALID,0,
2008-09-06, 03:08:00,VALID,916.547,VALID,0,VALID,100,VALID,-0.0679233,VALID,18.5931,VALID,102,VALID,0,
2008-09-06, 03:09:00,VALID,916.554,VALID,0,VALID,100,VALID,-0.0849042,VALID,18.6031,VALID,102,VALID,0,
2008-09-06, 03:10:00,VALID,916.556,VALID,0,VALID,100,VALID,-0.0169808,VALID,18.6093,VALID,102,VALID,0,
2008-09-06, 03:11:00,VALID,916.552,VALID,0,VALID,100,VALID,-0.0339617,VALID,18.6123,VALID,102,VALID,0,
2008-09-06, 03:12:00,VALID,916.549,VALID,0,VALID,100,VALID,-0.0339617,VALID,18.6188,VALID,102,VALID,0,
2008-09-06, 03:13:00,VALID,916.545,VALID,0,VALID,100,VALID,-0.0169808,VALID,18.6348,VALID,102,VALID,0,
2008-09-06, 03:14:00,VALID,916.536,VALID,0,VALID,100,VALID,-0.0169808,VALID,18.6547,VALID,102,VALID,0,
2008-09-06, 03:15:00,VALID,916.527,VALID,0,VALID,100,VALID,-0.0679233,VALID,18.6677,VALID,102,VALID,0,
2008-09-06, 03:16:00,VALID,916.514,VALID,0,VALID,100,VALID,-0.0339617,VALID,18.6642,VALID,102,VALID,0,
2008-09-06, 03:17:00,VALID,916.5,VALID,0,VALID,100,VALID,-0.0849042,VALID,18.6447,VALID,102,VALID,0,
2008-09-06, 03:18:00,VALID,916.486,VALID,0,VALID,100,VALID,-0.0169808,VALID,18.6573,VALID,102,VALID,0,
2008-09-06, 03:19:00,VALID,916.489,VALID,0,VALID,100,VALID,-0.0509425,VALID,18.6644,VALID,102,VALID,0,
2008-09-06, 03:20:00,VALID,916.485,VALID,0,VALID,100,VALID,-0.0849042,VALID,18.6644,VALID,102,VALID,0,
2008-09-06, 03:21:00,VALID,916.478,VALID,0,VALID,100,VALID,-0.0509425,VALID,18.6677,VALID,102,VALID,0,
2008-09-06, 03:22:00,VALID,916.484,VALID,0,VALID,100,VALID,-0.0339617,VALID,18.6739,VALID,102,VALID,0,
2008-09-06, 03:23:00,VALID,916.486,VALID,0,VALID,100,VALID,-0.0509425,VALID,18.6804,VALID,102,VALID,0,
2008-09-06, 03:24:00,VALID,916.506,VALID,0,VALID,100,VALID,-0.0509425,VALID,18.6872,VALID,102,VALID,0,
2008-09-06, 03:25:00,VALID,916.482,VALID,0,VALID,100,VALID,0,VALID,18.6899,VALID,102,VALID,0,
2008-09-06, 03:26:00,VALID,916.503,VALID,0,VALID,100,VALID,-0.0169808,VALID,18.7094,VALID,102,VALID,0,
2008-09-06, 03:27:00,VALID,916.489,VALID,0,VALID,100,VALID,0,VALID,18.7291,VALID,102,VALID,0,
2008-09-06, 03:28:00,VALID,916.489,VALID,0,VALID,100,VALID,0,VALID,18.7388,VALID,102,VALID,0,
2008-09-06, 03:29:00,VALID,916.497,VALID,0,VALID,100,VALID,-0.0509425,VALID,18.7418,VALID,102,VALID,0,
2008-09-06, 03:30:00,VALID,916.51,VALID,0,VALID,100,VALID,-0.0339617,VALID,18.7386,VALID,102,VALID,0,
2008-09-06, 03:31:00,VALID,916.506,VALID,0,VALID,100,VALID,0,VALID,18.7388,VALID,102,VALID,0,
2008-09-06, 03:32:00,VALID,916.516,VALID,0,VALID,100,VALID,-0.0339617,VALID,18.7358,VALID,102,VALID,0,
2008-09-06, 03:33:00,VALID,916.513,VALID,0,VALID,100,VALID,-0.0509425,VALID,18.7293,VALID,102,VALID,0,
2008-09-06, 03:34:00,VALID,916.512,VALID,0,VALID,100,VALID,-0.0339617,VALID,18.7293,VALID,102,VALID,0,
2008-09-06, 03:35:00,VALID,916.524,VALID,0,VALID,100,VALID,-0.0339617,VALID,18.7189,VALID,102,VALID,0,
2008-09-06, 03:36:00,VALID,916.517,VALID,0,VALID,100,VALID,-0.0509425,VALID,18.7326,VALID,102,VALID,0,
2008-09-06, 03:37:00,VALID,916.529,VALID,0,VALID,100,VALID,-0.0169808,VALID,18.7358,VALID,102,VALID,0,
2008-09-06, 03:38:00,VALID,916.521,VALID,0,VALID,100,VALID,-0.0679233,VALID,18.7291,VALID,102,VALID,0,
2008-09-06, 03:39:00,VALID,916.504,VALID,0,VALID,100,VALID,0,VALID,18.7189,VALID,102,VALID,0,
2008-09-06, 03:40:00,VALID,916.493,VALID,0,VALID,100,VALID,0,VALID,18.7226,VALID,102,VALID,0,
2008-09-06, 03:41:00,VALID,916.479,VALID,0,VALID,100,VALID,0,VALID,18.7096,VALID,102,VALID,0,
2008-09-06, 03:42:00,VALID,916.469,VALID,0,VALID,100,VALID,-0.0339617,VALID,18.67,VALID,102,VALID,0,
2008-09-06, 03:43:00,VALID,916.46,VALID,0,VALID,100,VALID,-0.0339617,VALID,18.651,VALID,102,VALID,0,
2008-09-06, 03:44:00,VALID,916.468,VALID,0,VALID,100,VALID,-0.0169808,VALID,18.6512,VALID,102,VALID,0,
2008-09-06, 03:45:00,VALID,916.474,VALID,0,VALID,100,VALID,-0.0169808,VALID,18.6413,VALID,102,VALID,0,
2008-09-06, 03:46:00,VALID,916.474,VALID,0,VALID,100,VALID,-0.0509425,VALID,18.6345,VALID,102,VALID,0,
2008-09-06, 03:47:00,VALID,916.495,VALID,0,VALID,100,VALID,-0.0169808,VALID,18.6415,VALID,102,VALID,0,
2008-09-06, 03:48:00,VALID,916.483,VALID,0,VALID,100,VALID,0,VALID,18.6415,VALID,102,VALID,0,
2008-09-06, 03:49:00,VALID,916.489,VALID,0,VALID,100,VALID,-0.0169808,VALID,18.6475,VALID,102,VALID,0,
2008-09-06, 03:50:00,VALID,916.501,VALID,0,VALID,100,VALID,0,VALID,18.6473,VALID,102,VALID,0,
2008-09-06, 03:51:00,VALID,916.498,VALID,0,VALID,100,VALID,-0.0169808,VALID,18.6642,VALID,102,VALID,0,